Weather in Gimje

South Korea     35°48′08″N   126°53′32″E
temp.,
°C
wind,
m/s
gust,
m/s
humid.,
%
clouds,
%
prec.,
mm/h
press.,
hPa
HPBL,
m
30 june, thu
thu3000:00+25s378999 0.0 1009277
03:00+24sse369290 0.0 1009192
06:00+24sse368892 0.0 1010241
09:00+29ssw696557 0.0 10101271
12:00+32sw71052100 0.6 10101976
15:00+32sw7947100 0.8 10102103
18:00+31sw575435 0.0 10111351
21:00+25s227558 0.0 101235
1 july, fri
fri100:00+23se228767 0.0 101338
03:00+22se229389 0.0 101323
06:00+23se229199 0.0 101460
09:00+28sse246419 0.0 1015886
12:00+33ssw344479 0.0 10141994
15:00+32wnw7552100 0.0 10131060
18:00+28wnw3367100 0.1 1014488
21:00+24nne118297 0.1 101419
2 july, sat
sat200:00+23e0188100 0.0 101412
03:00+22e119177 0.0 101412
06:00+22ese1189100 0.0 101417
09:00+29ne126333 0.0 1013534
12:00+34nnw2339100 0.0 10121785
15:00+36nw343399 0.0 10092002
18:00+30w5558100 0.0 1010420
21:00+24w118375 0.0 101228
3 july, sun
sun300:00+25sse1278100 0.0 101220
03:00+23e118499 0.0 101113
06:00+24ene1179100 0.0 101112
09:00+29e1256100 0.0 1010435
12:00+32s334586 0.0 10091319
15:00+33ssw5547100 0.1 10081544
18:00+25wnw2287100 2.0 100966
21:00+23e1191100 2.3 100916
4 july, mon
mon400:00+23se1191100 0.0 100913
03:00+22ese2292100 0.0 100718
06:00+22ese2289100 0.0 100737
09:00+27ese466688 0.0 1007894
12:00+31se4554100 0.0 10051488
15:00+30ese5555100 0.1 10041309
18:00+27ese4966100 0.0 1004808
21:00+25e5107475 0.0 1005789